Location: Goettingen
(51.5300°N, 9.9433°E)
Time: 17:36:32
(UTC+02:00)

ISS - Pass Details

Date: 13 May 2026
Orbit: 414 x 424 km, 51.6° (Epoch: 13 May)

Event Time Altitude Azimuth Distance (km) Brightness Sun altitude
Rises 23:19:43 0° 272° (W) 2,352 0.5 -15.4°
Reaches altitude 10° 23:21:49 10° 273° (W) 1,490 -0.6 -15.6°
Maximum altitude 23:25:10 86° 4° (N) 422 -3.8 -15.8°
Enters shadow 23:27:26 19° 91° (E) 1,057 -2.0 -16.0°
